CW9098 Weather Reports


Display with metric or nautical units.
time (UTC)temp
F
wind
direction
speed
MPH
gust
MPH
rain 1hr
in
rain 24hr
in
rain mn
in
humidity
%
barometer
mb
20260831221618 79 225 0.0 0.0 0.00 0.03 0.00 79 1018.2
20260831221135 79 225 0.0 0.0 0.00 0.03 0.00 79 1018.2
20260831220622 79 225 0.0 0.0 0.00 0.03 0.00 79 1018.4
20260831220137 79 225 0.0 0.0 0.00 0.03 0.00 79 1018.5
20260831215625 80 225 0.0 0.0 0.00 0.03 0.00 79 1018.4
20260831215117 80 225 0.0 0.0 0.00 0.03 0.00 78 1018.5
20260831214653 80 225 0.0 2.0 0.00 0.03 0.00 77 1018.5
20260831214119 80 225 0.0 2.0 0.00 0.03 0.00 77 1018.5
20260831213634 80 226 0.0 2.0 0.00 0.03 0.00 77 1018.6
20260831213121 80 223 0.0 1.0 0.00 0.03 0.00 77 1018.5
20260831212638 80 223 0.0 3.0 0.00 0.03 0.00 77 1018.5
20260831212124 81 223 1.0 3.0 0.00 0.03 0.00 76 1018.5
20260831211618 81 226 0.0 0.0 0.00 0.03 0.00 77 1018.5
20260831211134 79 224 0.0 0.0 0.00 0.03 0.00 79 1018.5
20260831210620 79 224 0.0 0.0 0.00 0.03 0.00 79 1018.6
20260831210116 79 224 0.0 0.0 0.00 0.03 0.00 78 1018.6
20260831205633 79 224 0.0 0.0 0.00 0.03 0.00 78 1018.6
20260831205119 79 224 0.0 0.0 0.00 0.03 0.00 77 1018.7
20260831204633 80 224 0.0 6.0 0.00 0.03 0.00 77 1018.6
20260831204120 80 225 0.0 6.0 0.00 0.03 0.00 76 1018.7
20260831203633 80 218 1.0 3.0 0.00 0.03 0.00 77 1018.8
20260831203118 81 223 1.0 6.0 0.00 0.03 0.00 76 1018.8
20260831202630 81 225 2.0 6.0 0.00 0.03 0.00 76 1018.9
20260831202124 81 186 0.0 4.0 0.00 0.03 0.00 75 1018.8
20260831201617 81 185 0.0 7.0 0.00 0.03 0.00 76 1018.7
20260831201151 81 226 1.0 7.0 0.00 0.03 0.00 76 1018.8
20260831200623 81 230 2.0 5.0 0.00 0.03 0.00 76 1018.9
20260831200117 81 235 2.0 5.0 0.00 0.03 0.00 76 1018.9
20260831195634 81 224 1.0 5.0 0.00 0.03 0.00 75 1018.9
20260831195120 81 227 0.0 4.0 0.00 0.03 0.00 76 1018.9
20260831194635 81 226 1.0 4.0 0.00 0.03 0.00 77 1018.9
20260831194121 80 229 1.0 3.0 0.00 0.03 0.00 77 1019.0
20260831193635 80 228 0.0 3.0 0.00 0.03 0.00 77 1019.0
20260831193122 80 229 1.0 3.0 0.00 0.03 0.00 77 1019.1
20260831192636 80 230 1.0 5.0 0.00 0.03 0.00 76 1019.1
20260831192141 80 218 0.0 4.0 0.00 0.03 0.00 77 1019.3
20260831191634 80 228 0.0 4.0 0.00 0.03 0.00 77 1019.3
20260831191123 79 228 1.0 6.0 0.00 0.03 0.00 78 1019.4
20260831190637 79 218 3.0 6.0 0.00 0.03 0.00 78 1019.5
20260831190124 79 224 1.0 3.0 0.00 0.03 0.00 78 1019.5
20260831185618 78 216 0.0 0.0 0.00 0.03 0.00 78 1019.5
20260831185131 78 232 0.0 1.0 0.00 0.03 0.00 79 1019.6
20260831184619 77 232 0.0 1.0 0.00 0.03 0.00 79 1019.7
20260831184133 77 232 0.0 3.0 0.00 0.03 0.00 79 1019.7
20260831183639 77 232 1.0 3.0 0.00 0.03 0.00 79 1019.7
20260831183131 77 235 1.0 4.0 0.00 0.03 0.00 79 1019.8
20260831182639 77 236 2.0 4.0 0.00 0.03 0.00 79 1019.7
20260831182124 77 221 2.0 4.0 0.00 0.03 0.00 78 1019.7
20260831181618 77 220 2.0 5.0 0.00 0.03 0.00 78 1019.7
20260831181153 77 221 1.0 5.0 0.00 0.03 0.00 79 1019.7
20260831180619 77 209 1.0 4.0 0.00 0.03 0.00 79 1019.7
20260831180134 78 228 1.0 5.0 0.00 0.03 0.00 78 1019.8
20260831175621 78 218 0.0 5.0 0.00 0.03 0.00 78 1019.8
20260831175134 78 219 1.0 4.0 0.00 0.03 0.00 78 1019.8
20260831174621 78 202 2.0 4.0 0.00 0.03 0.00 78 1019.9
20260831174138 78 212 1.0 5.0 0.00 0.03 0.00 78 1019.8
20260831173620 78 194 3.0 5.0 0.00 0.03 0.00 78 1019.9
20260831173134 78 186 0.0 5.0 0.00 0.03 0.00 79 1020.0
20260831172623 77 187 2.0 6.0 0.00 0.03 0.00 79 1020.0
20260831172133 77 234 2.0 6.0 0.00 0.03 0.00 79 1020.0
20260831171619 76 216 0.0 2.0 0.00 0.03 0.00 79 1019.9
20260831171134 76 222 0.0 3.0 0.00 0.03 0.00 79 1020.0
20260831170636 76 222 0.0 2.0 0.00 0.03 0.00 80 1020.1
20260831170143 75 226 0.0 3.0 0.00 0.03 0.00 80 1020.2
20260831165630 75 228 1.0 3.0 0.00 0.03 0.00 79 1020.2
20260831165124 75 229 2.0 3.0 0.00 0.03 0.00 79 1020.3
20260831164617 75 233 0.0 2.0 0.00 0.03 0.00 79 1020.4
20260831164133 75 234 0.0 4.0 0.00 0.03 0.00 79 1020.3
20260831163645 76 235 1.0 5.0 0.00 0.03 0.00 79 1020.3
20260831163137 76 222 4.0 5.0 0.00 0.03 0.00 79 1020.4
20260831162624 76 160 1.0 4.0 0.00 0.03 0.00 79 1020.5
20260831162118 76 197 2.0 4.0 0.00 0.03 0.00 79 1020.6
20260831161633 75 217 1.0 5.0 0.00 0.03 0.00 79 1020.6
20260831161120 75 234 2.0 7.0 0.00 0.03 0.00 79 1020.6
20260831160633 75 216 5.0 7.0 0.00 0.03 0.00 79 1020.6
20260831160120 75 224 3.0 6.0 0.00 0.03 0.00 79 1020.6
20260831155636 75 232 1.0 5.0 0.00 0.03 0.00 79 1020.6
20260831155141 75 186 1.0 6.0 0.00 0.03 0.00 79 1020.6
20260831154615 75 191 2.0 6.0 0.00 0.03 0.00 79 1020.6
20260831154133 74 194 1.0 4.0 0.00 0.03 0.00 80 1020.6
20260831153618 74 218 0.0 4.0 0.00 0.03 0.00 80 1020.6
20260831153153 74 224 0.0 0.0 0.00 0.03 0.00 80 1020.6
20260831152620 74 222 0.0 2.0 0.00 0.03 0.00 80 1020.7
20260831152133 73 223 0.0 3.0 0.00 0.03 0.00 81 1020.7
20260831151619 73 225 1.0 3.0 0.00 0.03 0.00 80 1020.7
20260831151150 73 226 1.0 5.0 0.00 0.03 0.00 80 1020.6
20260831150623 73 214 2.0 5.0 0.00 0.03 0.00 81 1020.7
20260831150115 73 207 0.0 2.0 0.00 0.03 0.00 81 1020.8
20260831145632 73 210 1.0 2.0 0.00 0.03 0.00 81 1020.9
20260831145144 72 216 0.0 0.0 0.00 0.03 0.00 81 1020.9
20260831144616 72 216 0.0 0.0 0.00 0.03 0.00 82 1021.1
20260831144132 72 216 0.0 0.0 0.00 0.03 0.00 82 1021.1
20260831143638 71 217 0.0 1.0 0.00 0.03 0.00 82 1021.0
20260831143123 70 218 0.0 3.0 0.00 0.03 0.00 83 1021.0
20260831142658 69 211 1.0 2.0 0.00 0.03 0.00 83 1021.1
20260831142123 69 206 0.0 2.0 0.00 0.03 0.00 83 1021.1
20260831141636 69 206 0.0 3.0 0.00 0.03 0.00 84 1021.0
20260831141125 69 205 1.0 3.0 0.00 0.03 0.00 84 1020.9
20260831140617 69 187 0.0 0.0 0.00 0.03 0.00 84 1020.9
20260831140132 69 193 0.0 0.0 0.00 0.03 0.00 84 1021.0
20260831135620 68 193 0.0 0.0 0.00 0.03 0.00 84 1021.0
20260831135133 68 193 0.0 0.0 0.00 0.03 0.00 85 1021.1
20260831134621 68 193 0.0 0.0 0.00 0.03 0.00 85 1021.1
20260831134136 68 193 0.0 0.0 0.00 0.03 0.00 85 1021.1
20260831133622 68 193 0.0 0.0 0.00 0.03 0.00 85 1021.0
20260831133138 68 193 0.0 0.0 0.00 0.03 0.00 85 1021.1
20260831132633 68 193 0.0 0.0 0.00 0.03 0.00 85 1021.0
20260831132120 67 193 0.0 0.0 0.00 0.03 0.00 85 1021.0
20260831131651 67 193 0.0 0.0 0.00 0.03 0.00 85 1020.9
20260831131140 67 193 0.0 0.0 0.00 0.03 0.00 85 1020.8
20260831130631 67 193 0.0 0.0 0.00 0.03 0.00 85 1020.9
20260831130117 67 193 0.0 0.0 0.00 0.03 0.00 85 1020.9
20260831125633 67 193 0.0 0.0 0.00 0.03 0.00 85 1020.9
20260831125119 67 193 0.0 0.0 0.00 0.03 0.00 85 1021.0
20260831124635 67 193 0.0 0.0 0.00 0.03 0.00 86 1021.0
20260831124123 67 193 0.0 0.0 0.00 0.03 0.00 86 1021.0
20260831123637 67 193 0.0 0.0 0.00 0.03 0.00 85 1021.0
20260831123124 66 193 0.0 0.0 0.00 0.03 0.00 85 1021.0
20260831122639 66 193 0.0 0.0 0.00 0.03 0.00 86 1020.9
20260831122125 67 150 0.0 0.0 0.00 0.03 0.00 86 1020.9
20260831121659 66 150 0.0 0.0 0.00 0.03 0.00 86 1020.9
20260831121146 66 150 0.0 0.0 0.00 0.03 0.00 86 1020.9
20260831120639 66 150 0.0 0.0 0.00 0.03 0.00 86 1020.9
20260831120132 66 150 0.0 0.0 0.00 0.03 0.00 85 1020.8
20260831115620 66 150 0.0 0.0 0.00 0.03 0.00 86 1020.8
20260831115129 65 150 0.0 0.0 0.00 0.03 0.00 86 1020.7
20260831114635 65 150 0.0 0.0 0.00 0.03 0.00 86 1020.6
20260831114120 65 150 0.0 0.0 0.00 0.03 0.00 86 1020.7
20260831113654 65 150 0.0 0.0 0.00 0.03 0.00 86 1020.7
20260831113120 65 150 0.0 0.0 0.00 0.03 0.00 85 1020.7
20260831112637 65 150 0.0 0.0 0.00 0.03 0.00 85 1020.8
20260831112123 65 150 0.0 0.0 0.00 0.03 0.00 85 1020.7
20260831111617 65 149 0.0 0.0 0.00 0.03 0.00 85 1020.7
20260831111133 65 149 0.0 0.0 0.00 0.03 0.00 85 1020.6
20260831110619 65 149 0.0 0.0 0.00 0.03 0.00 85 1020.7
20260831110134 65 149 0.0 0.0 0.00 0.03 0.00 85 1020.7
20260831105624 65 149 0.0 0.0 0.00 0.03 0.00 85 1020.5
20260831105119 64 149 0.0 0.0 0.00 0.03 0.00 85 1020.5
20260831104634 64 149 0.0 0.0 0.00 0.03 0.00 85 1020.4
20260831104121 64 149 0.0 0.0 0.00 0.03 0.00 85 1020.4
20260831103634 65 149 0.0 0.0 0.00 0.03 0.00 85 1020.3
20260831103121 65 149 0.0 0.0 0.00 0.03 0.00 85 1020.3
20260831102658 65 149 0.0 0.0 0.00 0.03 0.00 85 1020.3
20260831102124 65 149 0.0 0.0 0.00 0.03 0.00 85 1020.2
20260831101617 65 149 0.0 0.0 0.00 0.03 0.00 85 1020.2
20260831101134 64 149 0.0 0.0 0.00 0.03 0.00 85 1020.3
20260831100640 64 149 0.0 0.0 0.00 0.03 0.00 85 1020.3
20260831100141 64 149 0.0 0.0 0.00 0.03 0.00 85 1020.2
20260831095633 64 149 0.0 0.0 0.00 0.03 0.00 85 1020.1
20260831095119 64 149 0.0 0.0 0.00 0.03 0.00 85 1020.1
20260831094614 64 149 0.0 0.0 0.00 0.03 0.00 85 1020.0
20260831094130 64 149 0.0 0.0 0.00 0.03 0.00 85 1020.0
20260831093623 64 149 0.0 0.0 0.00 0.03 0.00 85 1020.0
20260831093138 64 180 0.0 0.0 0.00 0.03 0.00 85 1019.9
20260831092624 64 180 0.0 0.0 0.00 0.03 0.00 85 1019.8
20260831092118 64 180 0.0 0.0 0.00 0.03 0.00 85 1019.8
20260831091653 64 180 0.0 0.0 0.01 0.03 0.00 85 1019.8
20260831091123 64 180 0.0 0.0 0.01 0.03 0.00 85 1019.8
20260831090634 64 180 0.0 0.0 0.01 0.03 0.03 85 1019.7
20260831090121 64 180 0.0 0.0 0.01 0.03 0.03 85 1019.6
20260831085636 64 180 0.0 0.0 0.01 0.03 0.03 85 1019.7
20260831085124 64 144 0.0 0.0 0.01 0.03 0.03 85 1019.6
20260831084618 64 79 0.0 0.0 0.01 0.03 0.03 85 1019.5
20260831084134 64 79 0.0 0.0 0.01 0.03 0.03 85 1019.5
20260831083621 64 79 0.0 0.0 0.01 0.03 0.03 85 1019.6
20260831083134 64 79 0.0 0.0 0.01 0.03 0.03 85 1019.4
20260831082622 64 79 0.0 0.0 0.01 0.03 0.03 85 1019.4
20260831082158 64 76 0.0 0.0 0.01 0.03 0.03 85 1019.3
20260831081644 64 76 0.0 0.0 0.00 0.02 0.02 85 1019.3
20260831081118 64 74 0.0 0.0 0.00 0.02 0.02 85 1019.3
20260831080648 64 74 0.0 0.0 0.00 0.02 0.02 85 1019.3
20260831080136 64 74 0.0 0.0 0.00 0.02 0.02 85 1019.4
20260831075644 64 74 0.0 0.0 0.00 0.02 0.02 85 1019.5
20260831075138 64 74 0.0 0.0 0.00 0.02 0.02 85 1019.4
20260831074622 64 74 0.0 0.0 0.00 0.02 0.02 85 1019.5
20260831074138 64 72 0.0 0.0 0.00 0.02 0.02 85 1019.5
20260831073644 64 72 0.0 0.0 0.00 0.02 0.02 85 1019.5
20260831073117 64 72 0.0 0.0 0.00 0.02 0.02 84 1019.4
20260831072632 64 72 0.0 0.0 0.00 0.02 0.02 85 1019.4
20260831072118 64 72 0.0 0.0 0.00 0.02 0.02 85 1019.4
20260831071633 64 72 0.0 0.0 0.00 0.02 0.02 84 1019.5
20260831071122 64 72 0.0 0.0 0.00 0.02 0.02 84 1019.6
20260831070635 64 72 0.0 0.0 0.00 0.02 0.02 84 1019.7
20260831070122 64 72 0.0 0.0 0.00 0.02 0.02 84 1019.7
20260831065639 64 72 0.0 0.0 0.00 0.02 0.02 84 1019.7
20260831065132 64 72 0.0 0.0 0.00 0.02 0.02 84 1019.7
20260831064641 64 72 0.0 0.0 0.00 0.02 0.02 84 1020.0
20260831064116 65 72 0.0 0.0 0.00 0.02 0.02 84 1020.0
20260831063625 65 72 0.0 0.0 0.00 0.02 0.02 84 1020.0
20260831063120 65 72 0.0 0.0 0.00 0.02 0.02 84 1020.1
20260831062636 65 72 0.0 0.0 0.00 0.02 0.02 84 1020.1
20260831062128 65 72 0.0 0.0 0.00 0.02 0.02 84 1020.1
20260831061643 65 72 0.0 0.0 0.00 0.02 0.02 84 1020.0
20260831061117 65 72 0.0 0.0 0.00 0.02 0.02 84 1019.9
20260831060630 66 71 0.0 0.0 0.00 0.02 0.02 84 1019.9
20260831060138 66 71 0.0 0.0 0.00 0.02 0.02 84 1020.0
20260831055625 66 71 0.0 0.0 0.00 0.02 0.02 84 1020.2
20260831055119 66 71 0.0 0.0 0.00 0.02 0.02 84 1020.1
20260831054653 66 71 0.0 0.0 0.00 0.02 0.02 84 1020.2
20260831054140 66 71 0.0 0.0 0.00 0.02 0.02 84 1020.3
20260831053635 66 71 0.0 0.0 0.00 0.02 0.02 84 1020.4
20260831053122 66 71 0.0 0.0 0.00 0.02 0.02 84 1020.5
20260831052658 66 71 0.0 0.0 0.00 0.02 0.02 84 1020.5
20260831052123 66 71 0.0 0.0 0.00 0.02 0.02 84 1020.5
20260831051618 66 71 0.0 0.0 0.00 0.02 0.02 84 1020.6
20260831051134 66 71 0.0 0.0 0.00 0.02 0.02 84 1020.5
20260831050621 66 71 0.0 0.0 0.00 0.02 0.02 84 1020.6
20260831050114 66 71 0.0 0.0 0.00 0.02 0.02 84 1020.6
20260831045626 66 71 0.0 0.0 0.00 0.02 0.02 84 1020.5
20260831045119 67 71 0.0 0.0 0.00 0.02 0.02 84 1020.5
20260831044652 67 71 0.0 0.0 0.00 0.02 0.02 84 1020.4
20260831044120 67 71 0.0 0.0 0.00 0.02 0.02 84 1020.4
20260831043634 67 71 0.0 2.0 0.00 0.02 0.02 84 1020.4
20260831043121 67 71 0.0 2.0 0.00 0.02 0.02 84 1020.6
20260831042635 67 53 0.0 5.0 0.00 0.02 0.02 84 1020.7
20260831042120 67 56 2.0 5.0 0.00 0.02 0.02 84 1020.7
20260831041634 67 68 0.0 0.0 0.00 0.02 0.02 84 1020.7
20260831041142 67 32 0.0 0.0 0.00 0.02 0.02 84 1020.9
20260831040635 67 29 0.0 0.0 0.00 0.02 0.02 84 1020.9
20260831040124 67 29 0.0 0.0 0.02 0.02 0.02 84 1020.8
20260831035634 67 29 0.0 0.0 0.02 0.02 0.02 84 1020.8
20260831035120 67 29 0.0 0.0 0.02 0.02 0.02 84 1020.7
20260831034615 67 29 0.0 0.0 0.02 0.02 0.02 84 1020.5
20260831034132 67 29 0.0 0.0 0.02 0.02 0.02 84 1020.7
20260831033619 67 29 0.0 0.0 0.02 0.02 0.02 83 1020.7
20260831033134 67 30 0.0 0.0 0.02 0.02 0.02 83 1020.7
20260831032622 68 30 0.0 0.0 0.02 0.02 0.02 83 1020.8
20260831032137 68 29 0.0 0.0 0.02 0.02 0.02 83 1020.8
20260831031624 68 29 0.0 0.0 0.02 0.02 0.02 83 1020.8
20260831031137 68 293 0.0 0.0 0.02 0.02 0.02 84 1020.9
20260831030623 68 289 0.0 0.0 0.01 0.01 0.01 83 1020.9
20260831030152 68 289 0.0 0.0 0.00 0.00 0.00 83 1020.8
20260831025641 68 287 0.0 0.0 0.00 0.00 0.00 83 1020.8
20260831025126 68 286 0.0 0.0 0.00 0.00 0.00 83 1020.9
20260831024618 68 286 0.0 0.0 0.00 0.00 0.00 83 1020.9
20260831024134 68 286 0.0 0.0 0.00 0.00 0.00 83 1020.9
20260831023620 68 286 0.0 0.0 0.00 0.00 0.00 83 1020.8
20260831023134 68 286 0.0 0.0 0.00 0.00 0.00 83 1020.8
20260831022623 68 286 0.0 0.0 0.00 0.00 0.00 83 1020.9
20260831022155 68 286 0.0 0.0 0.00 0.00 0.00 83 1020.8
20260831021621 68 286 0.0 0.0 0.00 0.00 0.00 83 1020.8
20260831021115 69 286 0.0 0.0 0.00 0.00 0.00 83 1020.6
20260831020630 69 286 0.0 0.0 0.00 0.00 0.00 83 1020.7
20260831020118 69 286 0.0 0.0 0.00 0.00 0.00 83 1020.7
20260831015633 69 286 0.0 0.0 0.00 0.00 0.00 83 1020.5
20260831015120 69 286 0.0 0.0 0.00 0.00 0.00 83 1020.6
20260831014615 69 286 0.0 0.0 0.00 0.00 0.00 83 1020.5
20260831014131 69 286 0.0 0.0 0.00 0.00 0.00 83 1020.4
20260831013619 69 286 0.0 0.0 0.00 0.00 0.00 83 1020.4
20260831013155 69 286 0.0 0.0 0.00 0.00 0.00 83 1020.3
20260831012622 69 286 0.0 0.0 0.00 0.00 0.00 83 1020.3
20260831012114 69 286 0.0 0.0 0.00 0.00 0.00 83 1020.2
20260831011644 69 286 0.0 0.0 0.00 0.00 0.00 83 1020.1
20260831011118 69 286 0.0 0.0 0.00 0.00 0.00 83 1020.2
20260831010633 69 286 0.0 0.0 0.00 0.00 0.00 83 1020.1
20260831010123 70 286 0.0 0.0 0.00 0.00 0.00 83 1020.0
20260831005639 70 286 0.0 0.0 0.00 0.00 0.00 83 1019.8
20260831005124 70 286 0.0 0.0 0.00 0.00 0.00 83 1019.8
20260831004618 70 286 0.0 0.0 0.00 0.00 0.00 83 1019.7
20260831004134 70 286 0.0 0.0 0.00 0.00 0.00 83 1019.6
20260831003621 70 286 0.0 0.0 0.00 0.00 0.00 83 1019.5
20260831003116 70 286 0.0 0.0 0.00 0.00 0.00 83 1019.5
20260831002631 70 286 0.0 0.0 0.00 0.00 0.00 83 1019.5
20260831002117 71 286 0.0 0.0 0.00 0.00 0.00 82 1019.4
20260831001630 71 286 0.0 0.0 0.00 0.00 0.00 83 1019.4
20260831001138 71 286 0.0 0.0 0.00 0.00 0.00 82 1019.3
20260831000644 71 286 0.0 0.0 0.00 0.00 0.00 82 1019.2
20260831000138 71 286 0.0 0.0 0.00 0.00 0.00 82 1019.2
20260830235646 72 286 0.0 0.0 0.00 0.00 0.00 82 1019.1
20260830235118 72 286 0.0 0.0 0.00 0.00 0.00 82 1019.0
20260830234654 72 286 0.0 0.0 0.00 0.00 0.00 82 1019.1
20260830234139 72 286 0.0 0.0 0.00 0.00 0.00 82 1019.1
20260830233627 72 286 0.0 0.0 0.00 0.00 0.00 82 1019.0
20260830233133 72 286 0.0 0.0 0.00 0.00 0.00 82 1018.9
20260830232621 73 286 0.0 0.0 0.00 0.00 0.00 82 1018.9
20260830232115 73 286 0.0 0.0 0.00 0.00 0.00 82 1018.9
20260830231631 73 286 0.0 0.0 0.00 0.00 0.00 81 1019.0
20260830231124 73 286 0.0 0.0 0.00 0.00 0.00 81 1019.0
20260830230636 73 286 0.0 0.0 0.00 0.00 0.00 81 1019.0
20260830230123 73 286 0.0 0.0 0.00 0.00 0.00 82 1019.0
20260830225618 73 286 0.0 0.0 0.00 0.00 0.00 82 1018.9
20260830225132 74 283 0.0 0.0 0.00 0.00 0.00 81 1018.9
20260830224619 74 283 0.0 0.0 0.00 0.00 0.00 80 1018.9
20260830224134 74 283 0.0 0.0 0.00 0.00 0.00 81 1018.9
20260830223636 75 283 0.0 0.0 0.00 0.00 0.00 80 1019.0
20260830223122 75 283 0.0 0.0 0.00 0.00 0.00 80 1019.0
20260830222635 75 283 0.0 0.0 0.00 0.00 0.00 80 1019.0
20260830222141 75 283 0.0 0.0 0.00 0.00 0.00 80 1019.1